Overview Statistics Trail Chart Weather Telemetry Raw packets
 

This is the latest recevied weather packets stored in our database for station/object WABB. If no packets are shown the sender has not sent any weather packets the latest 10 day(s).

<< 11 12 13 14 15 >>
Time Temp. Humidity Pressure Rain* Wind** Luminosity Snow
1787670803 26.11° C 89% 1014 hPa 0 mm - - -
1787668821 26.11° C 89% 1014 hPa 0 mm - - -
1787662686 27.78° C 79% 1014 hPa 0 mm - - -
1787656101 28.89° C 70% 1013 hPa 0 mm - - -
1787651764 28.89° C 70% 1012 hPa 0 mm - - -
1787649539 30° C 66% 1011 hPa 0 mm - - -
1787647202 30° C 66% 1011 hPa 0 mm - - -
1787645168 31.11° C 62% 1011 hPa 0 mm - - -
1787642999 30° C 70% 1011 hPa 0 mm - - -
1787636080 31.11° C 66% 1011 hPa 0 mm - - -
1787634076 31.11° C 66% 1012 hPa 0 mm - - -
1787632102 31.11° C 66% 1012 hPa 0 mm - - -
1787627255 30° C 75% 1014 hPa 0 mm - - -
1787625212 31.11° C 70% 1014 hPa 0 mm - - -
1787623228 30° C 75% 1014 hPa 0 mm - - -
1787621249 30° C 75% 1014 hPa 0 mm - - -
1787619215 28.89° C 79% 1014 hPa 0 mm - - -
1787617242 28.89° C 79% 1014 hPa 0 mm - - -
1787615272 27.22° C 89% 1013 hPa 0 mm - - -
1787613298 25° C 94% 1013 hPa 0 mm - - -
1787611328 23.89° C 94% 1013 hPa 0 mm - - -
1787609355 22.78° C 99% 1013 hPa 0 mm - - -
1787607376 22.78° C 99% 1013 hPa 0 mm - - -
1787605276 22.78° C 99% 1012 hPa 0 mm - - -
1787603313 23.89° C 94% 1012 hPa 0 mm - - -

* Rain latest hour (hover to see other rain measurements)
** Current wind speed in m/s (hover to see current wind gust speed)